FW3788 Weather Reports


Display with metric or nautical units.
time (UTC)temp
F
wind
direction
speed
MPH
gust
MPH
rain 1hr
in
rain 24hr
in
rain mn
in
humidity
%
barometer
mb
20260906052011 57 325 0.0 0.0 0.00 0.00 0.00 55 1011.9
20260906051510 57 325 0.0 0.0 0.00 0.00 0.00 55 1011.9
20260906051011 58 325 0.0 0.0 0.00 0.00 0.00 55 1011.9
20260906050514 58 325 0.0 0.0 0.00 0.00 0.00 54 1011.8
20260906050012 58 325 0.0 0.0 0.00 0.00 0.00 54 1011.8
20260906045512 58 325 0.0 0.0 0.00 0.00 0.00 53 1011.9
20260906045012 59 325 0.0 0.0 0.00 0.00 0.00 53 1011.9
20260906044512 59 325 0.0 0.0 0.00 0.00 0.00 52 1011.8
20260906044013 59 325 0.0 0.0 0.00 0.00 0.00 52 1011.8
20260906043511 59 325 0.0 0.0 0.00 0.00 0.00 51 1011.8
20260906043012 60 325 0.0 0.0 0.00 0.00 0.00 51 1011.7
20260906042510 60 325 0.0 0.0 0.00 0.00 0.00 51 1011.6
20260906042011 61 325 0.0 2.0 0.00 0.00 0.00 49 1011.6
20260906041513 61 325 0.0 2.0 0.00 0.00 0.00 50 1011.6
20260906041012 62 325 0.0 0.0 0.00 0.00 0.00 48 1011.5
20260906040511 63 325 0.0 0.0 0.00 0.00 0.00 46 1011.5
20260906040011 63 325 0.0 0.0 0.00 0.00 0.00 46 1011.4
20260906035511 64 325 0.0 0.0 0.00 0.00 0.00 46 1011.4
20260906035012 64 325 0.0 0.0 0.00 0.00 0.00 46 1011.2
20260906034516 65 325 0.0 0.0 0.00 0.00 0.00 44 1011.2
20260906034011 66 325 0.0 1.0 0.00 0.00 0.00 44 1011.1
20260906033511 66 325 0.0 1.0 0.00 0.00 0.00 44 1011.0
20260906033016 66 325 0.0 0.0 0.00 0.00 0.00 44 1010.9
20260906032511 66 325 0.0 4.0 0.00 0.00 0.00 43 1010.9
20260906032012 67 325 0.0 4.0 0.00 0.00 0.00 43 1010.9
20260906031511 67 325 0.0 4.0 0.00 0.00 0.00 42 1010.8
20260906031011 67 325 0.0 2.0 0.00 0.00 0.00 42 1010.8
20260906030512 67 325 0.0 2.0 0.00 0.00 0.00 41 1010.7
20260906030011 68 325 0.0 3.0 0.00 0.00 0.00 41 1010.7
20260906025511 68 325 0.0 3.0 0.00 0.00 0.00 41 1010.7
20260906025011 68 325 0.0 3.0 0.00 0.00 0.00 40 1010.6
20260906024511 69 325 0.0 6.0 0.00 0.00 0.00 40 1010.6
20260906024011 69 326 0.0 6.0 0.00 0.00 0.00 39 1010.5
20260906023512 69 326 0.0 5.0 0.00 0.00 0.00 38 1010.5
20260906023012 70 326 0.0 3.0 0.00 0.00 0.00 38 1010.5
20260906022511 70 326 0.0 4.0 0.00 0.00 0.00 37 1010.5
20260906022014 70 326 1.0 4.0 0.00 0.00 0.00 37 1010.4
20260906021516 71 327 1.0 7.0 0.00 0.00 0.00 36 1010.5
20260906021011 71 326 2.0 8.0 0.00 0.00 0.00 36 1010.4
20260906020011 72 314 1.0 4.0 0.00 0.00 0.00 34 1010.4
20260906015511 73 316 1.0 5.0 0.00 0.00 0.00 33 1010.4
20260906015011 73 316 1.0 5.0 0.00 0.00 0.00 33 1010.4
20260906014519 73 316 0.0 8.0 0.00 0.00 0.00 32 1010.4
20260906014011 73 320 1.0 8.0 0.00 0.00 0.00 32 1010.4
20260906013513 74 305 1.0 6.0 0.00 0.00 0.00 31 1010.3
20260906013012 74 310 0.0 9.0 0.00 0.00 0.00 31 1010.4
20260906012611 74 317 2.0 11.0 0.00 0.00 0.00 31 1010.3
20260906012014 75 303 4.0 11.0 0.00 0.00 0.00 30 1010.3
20260906011619 75 323 2.0 7.0 0.00 0.00 0.00 29 1010.3
20260906011011 76 295 1.0 7.0 0.00 0.00 0.00 28 1010.2
20260906010511 76 300 0.0 8.0 0.00 0.00 0.00 29 1010.3
20260906010012 76 303 1.0 9.0 0.00 0.00 0.00 29 1010.3
20260906005511 76 316 1.0 11.0 0.00 0.00 0.00 28 1010.3
20260906005015 76 320 2.0 11.0 0.00 0.00 0.00 28 1010.2
20260906004511 77 305 2.0 10.0 0.00 0.00 0.00 27 1010.2
20260906004011 77 301 3.0 10.0 0.00 0.00 0.00 28 1010.1
20260906003511 77 289 3.0 10.0 0.00 0.00 0.00 27 1010.1
20260906003011 78 291 2.0 11.0 0.00 0.00 0.00 27 1010.0
20260906002512 79 289 3.0 11.0 0.00 0.00 0.00 26 1009.9
20260906002011 79 333 2.0 7.0 0.00 0.00 0.00 24 1009.9
20260906001512 79 334 3.0 7.0 0.00 0.00 0.00 24 1009.9
20260906001011 80 315 0.0 5.0 0.00 0.00 0.00 24 1010.0
20260906000514 79 189 0.0 7.0 0.00 0.00 0.00 24 1009.9
20260906000011 79 188 2.0 7.0 0.00 0.00 0.00 24 1009.9
20260905235513 79 188 2.0 13.0 0.00 0.00 0.00 24 1010.0
20260905235011 79 194 7.0 14.0 0.00 0.00 0.00 24 1010.0
20260905234513 79 194 5.0 15.0 0.00 0.00 0.00 24 1010.1
20260905234011 79 191 6.0 15.0 0.00 0.00 0.00 25 1010.0
20260905233512 79 197 2.0 15.0 0.00 0.00 0.00 25 1010.1
20260905233011 79 191 8.0 15.0 0.00 0.00 0.00 25 1010.1
20260905232511 79 183 7.0 13.0 0.00 0.00 0.00 25 1010.0
20260905232011 80 185 2.0 10.0 0.00 0.00 0.00 24 1010.0
20260905231512 79 202 0.0 12.0 0.00 0.00 0.00 24 1010.1
20260905231013 80 195 4.0 12.0 0.00 0.00 0.00 24 1010.3
20260905230513 80 177 2.0 7.0 0.00 0.00 0.00 23 1010.3
20260905230011 80 167 1.0 7.0 0.00 0.00 0.00 24 1010.3
20260905225511 79 174 0.0 7.0 0.00 0.00 0.00 25 1010.4
20260905225011 79 197 3.0 13.0 0.00 0.00 0.00 24 1010.6
20260905224519 78 187 3.0 12.0 0.00 0.00 0.00 26 1010.7
20260905224012 79 62 3.0 9.0 0.00 0.00 0.00 27 1010.6
20260905223511 79 359 2.0 9.0 0.00 0.00 0.00 27 1010.7
20260905223011 79 147 2.0 6.0 0.00 0.00 0.00 27 1010.8
20260905222513 80 87 2.0 7.0 0.00 0.00 0.00 27 1010.8
20260905222011 79 104 0.0 1.0 0.00 0.00 0.00 27 1010.8
20260905221611 78 106 0.0 7.0 0.00 0.00 0.00 27 1010.8
20260905221012 78 44 0.0 7.0 0.00 0.00 0.00 28 1010.9
20260905220514 78 350 0.0 10.0 0.00 0.00 0.00 28 1011.0
20260905220114 78 359 2.0 10.0 0.00 0.00 0.00 27 1011.0
20260905215511 78 130 0.0 7.0 0.00 0.00 0.00 28 1011.0
20260905215012 78 295 0.0 6.0 0.00 0.00 0.00 28 1011.0
20260905214512 78 310 0.0 11.0 0.00 0.00 0.00 29 1011.1
20260905214011 78 312 5.0 11.0 0.00 0.00 0.00 28 1011.1
20260905213513 78 14 2.0 10.0 0.00 0.00 0.00 28 1011.0
20260905213012 79 198 1.0 25.0 0.00 0.00 0.00 28 1011.3
20260905212511 78 244 17.0 26.0 0.00 0.00 0.00 28 1011.0
20260905212011 78 203 2.0 10.0 0.00 0.00 0.00 28 1011.3
20260905211511 79 173 4.0 9.0 0.00 0.00 0.00 28 1011.3
20260905211011 79 220 0.0 12.0 0.00 0.00 0.00 28 1011.3
20260905210512 78 203 2.0 12.0 0.00 0.00 0.00 29 1011.4
20260905210016 78 167 0.0 4.0 0.00 0.00 0.00 30 1011.4
20260905205511 78 278 0.0 4.0 0.00 0.00 0.00 29 1011.5
20260905205016 78 165 0.0 6.0 0.00 0.00 0.00 29 1011.5
20260905204512 78 164 0.0 6.0 0.00 0.00 0.00 30 1011.6
20260905204011 77 124 1.0 5.0 0.00 0.00 0.00 29 1011.8
20260905203512 77 64 0.0 7.0 0.00 0.00 0.00 30 1011.5
20260905203012 77 42 0.0 8.0 0.00 0.00 0.00 30 1011.6
20260905202511 75 350 1.0 8.0 0.00 0.00 0.00 32 1011.7
20260905202012 76 89 0.0 7.0 0.00 0.00 0.00 31 1011.8
20260905201519 77 156 0.0 7.0 0.00 0.00 0.00 30 1011.7
20260905201011 75 162 2.0 9.0 0.00 0.00 0.00 32 1011.7
20260905200512 75 63 4.0 9.0 0.00 0.00 0.00 33 1011.7
20260905200013 75 87 0.0 1.0 0.00 0.00 0.00 32 1011.8
20260905195511 74 91 0.0 3.0 0.00 0.00 0.00 34 1011.8
20260905195011 74 68 0.0 0.0 0.00 0.00 0.00 35 1011.8
20260905194511 74 73 0.0 0.0 0.00 0.00 0.00 36 1011.9
20260905194012 73 71 0.0 0.0 0.00 0.00 0.00 36 1011.9
20260905193512 73 72 0.0 0.0 0.00 0.00 0.00 36 1012.1
20260905193013 74 60 0.0 4.0 0.00 0.00 0.00 36 1012.1
20260905192515 74 59 1.0 6.0 0.00 0.00 0.00 35 1012.0
20260905192013 73 354 0.0 6.0 0.00 0.00 0.00 35 1012.0
20260905191512 73 33 0.0 6.0 0.00 0.00 0.00 36 1012.1
20260905191011 73 18 2.0 6.0 0.00 0.00 0.00 37 1012.1
20260905190514 72 165 0.0 7.0 0.00 0.00 0.00 39 1012.1
20260905190012 72 165 2.0 7.0 0.00 0.00 0.00 39 1012.2
20260905185511 72 167 1.0 4.0 0.00 0.00 0.00 39 1012.2
20260905185012 73 33 0.0 4.0 0.00 0.00 0.00 38 1012.3
20260905184512 72 20 0.0 4.0 0.00 0.00 0.00 36 1012.3
20260905184013 72 115 0.0 4.0 0.00 0.00 0.00 37 1012.3
20260905183512 72 115 0.0 4.0 0.00 0.00 0.00 37 1012.4
20260905183011 72 125 0.0 7.0 0.00 0.00 0.00 38 1012.5
20260905182511 72 55 2.0 7.0 0.00 0.00 0.00 37 1012.5
20260905182012 72 73 1.0 4.0 0.00 0.00 0.00 37 1012.4
20260905181512 72 341 0.0 7.0 0.00 0.00 0.00 39 1012.4
20260905181013 72 341 0.0 7.0 0.00 0.00 0.00 39 1012.3
20260905180512 72 37 0.0 5.0 0.00 0.00 0.00 40 1012.4
20260905180012 71 87 1.0 5.0 0.00 0.00 0.00 39 1012.4
20260905175512 71 39 0.0 4.0 0.00 0.00 0.00 39 1012.4
20260905175012 70 31 0.0 6.0 0.00 0.00 0.00 39 1012.3
20260905174514 70 35 0.0 6.0 0.00 0.00 0.00 38 1012.4
20260905174011 71 73 3.0 6.0 0.00 0.00 0.00 37 1012.3
20260905173513 71 338 0.0 2.0 0.00 0.00 0.00 39 1012.4
20260905173024 71 338 0.0 5.0 0.00 0.00 0.00 40 1012.3
20260905172512 71 338 1.0 5.0 0.00 0.00 0.00 39 1012.3
20260905172012 72 337 0.0 2.0 0.00 0.00 0.00 38 1012.3
20260905171512 70 337 0.0 3.0 0.00 0.00 0.00 42 1012.3
20260905171012 69 339 0.0 6.0 0.00 0.00 0.00 41 1012.3
20260905170512 69 339 0.0 6.0 0.00 0.00 0.00 41 1012.2
20260905170012 69 323 0.0 5.0 0.00 0.00 0.00 41 1012.2
20260905165512 69 323 0.0 6.0 0.00 0.00 0.00 41 1012.2
20260905165012 70 320 0.0 5.0 0.00 0.00 0.00 42 1012.2
20260905164513 69 320 0.0 4.0 0.00 0.00 0.00 44 1012.2
20260905164013 70 320 0.0 4.0 0.00 0.00 0.00 44 1012.2
20260905163512 70 320 0.0 0.0 0.00 0.00 0.00 42 1012.2
20260905163016 70 320 0.0 0.0 0.00 0.00 0.00 42 1012.2
20260905162513 70 320 0.0 0.0 0.00 0.00 0.00 43 1012.1
20260905162012 69 320 0.0 0.0 0.00 0.00 0.00 44 1012.2
20260905161511 69 320 0.0 0.0 0.00 0.00 0.00 44 1012.2
20260905161011 68 320 0.0 0.0 0.00 0.00 0.00 44 1012.4
20260905160512 67 320 0.0 0.0 0.00 0.00 0.00 44 1012.4
20260905160012 67 320 0.0 0.0 0.00 0.00 0.00 45 1012.3
20260905155512 67 320 0.0 0.0 0.00 0.00 0.00 45 1012.3
20260905155012 66 320 0.0 0.0 0.00 0.00 0.00 47 1012.3
20260905154512 66 320 0.0 0.0 0.00 0.00 0.00 48 1012.4
20260905154012 66 320 0.0 0.0 0.00 0.00 0.00 49 1012.4
20260905153512 65 320 0.0 0.0 0.00 0.00 0.00 49 1012.4
20260905153013 64 320 0.0 0.0 0.00 0.00 0.00 51 1012.3
20260905152615 63 320 0.0 0.0 0.00 0.00 0.00 53 1012.2
20260905152015 63 320 0.0 0.0 0.00 0.00 0.00 54 1012.3
20260905151511 62 320 0.0 0.0 0.00 0.00 0.00 55 1012.3
20260905151012 62 320 0.0 0.0 0.00 0.00 0.00 55 1012.2
20260905150512 60 320 0.0 0.0 0.00 0.00 0.00 58 1012.2
20260905150013 59 320 0.0 0.0 0.00 0.00 0.00 60 1012.1
20260905145512 58 320 0.0 0.0 0.00 0.00 0.00 61 1012.2
20260905145113 58 320 0.0 0.0 0.00 0.00 0.00 61 1012.2
20260905135602 57 320 0.0 0.0 0.00 0.00 0.00 61 1011.9
20260905135013 57 320 0.0 0.0 0.00 0.00 0.00 61 1011.9
20260905134512 57 320 0.0 0.0 0.00 0.00 0.00 61 1011.9
20260905134013 57 320 0.0 0.0 0.00 0.00 0.00 62 1011.9
20260905133513 57 320 0.0 0.0 0.00 0.00 0.00 61 1011.9
20260905133016 57 320 0.0 0.0 0.00 0.00 0.00 62 1011.8
20260905132512 57 320 0.0 0.0 0.00 0.00 0.00 61 1011.8
20260905070513 56 320 0.0 0.0 0.00 0.00 0.00 65 1012.9
20260905070013 55 320 0.0 0.0 0.00 0.00 0.00 65 1012.8
20260905065513 55 320 0.0 0.0 0.00 0.00 0.00 65 1012.8
20260905065012 55 320 0.0 5.0 0.00 0.00 0.00 65 1012.8
20260905064513 55 320 0.0 5.0 0.00 0.00 0.00 65 1012.8
20260905064013 55 324 0.0 0.0 0.00 0.00 0.00 66 1012.8
20260905063515 55 324 0.0 0.0 0.00 0.00 0.00 64 1012.8
20260905063014 56 324 0.0 0.0 0.00 0.00 0.00 63 1012.8
20260905062515 56 324 0.0 0.0 0.00 0.00 0.00 64 1012.7
20260905062012 56 324 0.0 0.0 0.00 0.00 0.00 64 1012.7
20260905061515 55 324 0.0 0.0 0.00 0.00 0.00 64 1012.6
20260905061012 55 324 0.0 0.0 0.00 0.00 0.00 64 1012.6
20260905060512 55 324 0.0 0.0 0.00 0.00 0.00 64 1012.6
20260905060013 55 324 0.0 0.0 0.00 0.00 0.00 64 1012.6
20260905055512 55 324 0.0 0.0 0.00 0.00 0.00 64 1012.6
20260905055016 55 324 0.0 0.0 0.00 0.00 0.00 64 1012.7
20260905054514 55 324 0.0 0.0 0.00 0.00 0.00 63 1012.7
20260905054012 56 324 0.0 0.0 0.00 0.00 0.00 63 1012.6
20260905053512 56 324 0.0 0.0 0.00 0.00 0.00 63 1012.6
20260905053115 56 324 0.0 0.0 0.00 0.00 0.00 63 1012.6
20260905052512 56 324 0.0 0.0 0.00 0.00 0.00 62 1012.6